Volk, WI

4:58 PM CDT on March 27, 2017 (GMT -0500)
Volk

Weather History for KVOK - April, 2014

Change the Weather History Date:

Friday, April 25, 2014

  Actual Average Record
Temperature  
Mean Temperature 48 °F -  
Max Temperature 64 °F 59 °F 76 °F (2016)
Min Temperature 33 °F 40 °F 29 °F (2013)
Degree Days  
Heating Degree Days 18    
Moisture  
Dew Point 39 °F    
Average Humidity 81    
Maximum Humidity 100    
Minimum Humidity 34    
Precipitation  
Precipitation 0.01 in - - ()
Sea Level Pressure  
Sea Level Pressure 29.78 in    
Wind  
Wind Speed 8 mph (West)    
Max Wind Speed 23 mph    
Max Gust Speed 30 mph    
Visibility 8 miles    
Events Fog    
Averages and records for this station are not official NWS values.
T = Trace of Precipitation, MM = Missing Value Source: NWS Daily Summary

Daily Weather History Graph

Daily Weather History Graph

Search for Another Location

Airport or City:

Trip Planner

Search our weather history database for the weather conditions in past years. The results will help you decide how hot, cold, wet, or windy it might be!

Date:

Astronomy

Apr. 25, 2014 Rise Set
Actual Time 6:01 AM CDT 7:57 PM CDT
Civil Twilight 5:30 AM CDT 8:28 PM CDT
Nautical Twilight 4:52 AM CDT 9:06 PM CDT
Astronomical Twilight 4:11 AM CDT 9:47 PM CDT
Moon 3:58 AM CDT (4/25) 4:12 PM CDT (4/25)
Length of Visible Light 14h 57m
Length of Day
13h 55m
Waning Crescent, 15% of the Moon is Illuminated
Apr 25
Waning Crescent
Apr 29
New
May 6
First Quarter
May 14
Full
May 21
Last Quarter

Hourly Weather History & Observations

Time (CDT) Temp. Windchill Dew Point Humidity Pressure Visibility Wind Dir Wind Speed Gust Speed Precip Events Conditions
12:38 AM 44.6 °F 38.4 °F 44.6 °F 100% 29.71 in 10.0 mi WNW 12.7 mph 20.7 mph N/A   Overcast
12:58 AM 43.9 °F 38.8 °F 43.9 °F 100% 29.74 in 10.0 mi WNW 9.2 mph - 0.01 in   Overcast
1:58 AM 43.2 °F 37.4 °F 43.0 °F 99% 29.74 in 10.0 mi NW 10.4 mph - N/A   Overcast
2:58 AM 42.8 °F 37.0 °F 42.8 °F 100% 29.74 in 10.0 mi NW 10.4 mph - N/A   Overcast
3:58 AM 42.4 °F 38.1 °F 42.4 °F 100% 29.75 in 10.0 mi WNW 6.9 mph - N/A   Overcast
4:38 AM 41.0 °F 39.0 °F 41.0 °F 100% 29.72 in 10.0 mi West 3.5 mph - N/A   Mostly Cloudy
4:43 AM 41.0 °F 39.0 °F 41.0 °F 100% 29.72 in 10.0 mi WSW 3.5 mph - N/A   Mostly Cloudy
4:58 AM 38.7 °F 36.3 °F 38.7 °F 100% 29.76 in 10.0 mi West 3.5 mph - N/A   Mostly Cloudy
5:03 AM 37.4 °F 34.9 °F 37.4 °F 100% 29.73 in 10.0 mi West 3.5 mph - N/A   Scattered Clouds
5:13 AM 37.4 °F - 37.4 °F 100% 29.74 in 9.0 mi WNW 1.2 mph - N/A   Mostly Cloudy
5:23 AM 37.4 °F - 37.4 °F 100% 29.74 in 8.0 mi WSW 2.3 mph - N/A   Scattered Clouds
5:48 AM 37.4 °F 34.9 °F 37.4 °F 100% 29.75 in 4.0 mi SW 3.5 mph - N/A   Mostly Cloudy
5:53 AM 37.4 °F 34.9 °F 37.4 °F 100% 29.75 in 3.0 mi WSW 3.5 mph - N/A   Scattered Clouds
5:58 AM 35.6 °F 32.8 °F 35.6 °F 100% 29.78 in 3.0 mi WSW 3.5 mph - N/A   Scattered Clouds
6:18 AM 35.6 °F - 35.6 °F 100% 29.75 in 2.5 mi WSW 2.3 mph - N/A   Clear
6:23 AM 35.6 °F - 35.6 °F 100% 29.76 in 1.0 mi WSW 2.3 mph - N/A   Clear
6:28 AM 35.6 °F - 35.6 °F 100% 29.76 in 0.5 mi WSW 2.3 mph - N/A Fog Fog
6:38 AM 33.8 °F - 33.8 °F 100% 29.76 in 0.2 mi SW 1.2 mph - N/A Fog Fog
6:48 AM 35.6 °F - 35.6 °F 100% 29.76 in 0.2 mi SSW 2.3 mph - N/A Fog Fog
6:58 AM 35.6 °F 32.8 °F 35.6 °F 100% 29.80 in 7.0 mi SSW 3.5 mph - N/A Fog Patches of Fog
7:58 AM 42.8 °F 40.1 °F 42.8 °F 100% 29.80 in 10.0 mi SW 4.6 mph - N/A   Partly Cloudy
8:58 AM 48.2 °F - 46.4 °F 93% 29.80 in 10.0 mi SW 5.8 mph - N/A   Partly Cloudy
9:58 AM 51.8 °F - 46.4 °F 82% 29.79 in 10.0 mi SW 5.8 mph - N/A   Scattered Clouds
10:58 AM 55.4 °F - 46.4 °F 72% 29.78 in 10.0 mi WSW 8.1 mph - N/A   Scattered Clouds
11:58 AM 59.0 °F - 42.8 °F 55% 29.76 in 10.0 mi WNW 13.8 mph 28.8 mph N/A   Scattered Clouds
12:58 PM 60.8 °F - 39.2 °F 45% 29.78 in 10.0 mi WNW 18.4 mph 27.6 mph N/A   Scattered Clouds
1:58 PM 62.1 °F - 38.1 °F 41% 29.78 in 10.0 mi West 18.4 mph - N/A   Partly Cloudy
2:58 PM 61.3 °F - 36.3 °F 39% 29.78 in 10.0 mi West 21.9 mph 29.9 mph N/A   Partly Cloudy
3:58 PM 61.9 °F - 33.4 °F 34% 29.78 in 10.0 mi WNW 23.0 mph 27.6 mph N/A   Partly Cloudy
4:58 PM 62.8 °F - 33.8 °F 34% 29.78 in 10.0 mi WNW 19.6 mph 26.5 mph N/A   Partly Cloudy
5:58 PM 60.6 °F - 33.6 °F 36% 29.79 in 10.0 mi West 16.1 mph 24.2 mph N/A   Partly Cloudy
6:58 PM 60.6 °F - 34.9 °F 38% 29.80 in 10.0 mi WNW 11.5 mph - N/A   Scattered Clouds
7:58 PM 55.6 °F - 36.1 °F 48% 29.82 in 10.0 mi West 8.1 mph - N/A   Mostly Cloudy
8:58 PM 44.4 °F 42.9 °F 34.2 °F 67% 29.83 in 10.0 mi WNW 3.5 mph - N/A   Clear
9:58 PM 49.6 °F - 39.4 °F 68% 29.87 in 10.0 mi North 10.4 mph - N/A   Clear
10:58 PM 47.7 °F - 36.7 °F 66% 29.90 in 10.0 mi North 12.7 mph - N/A   Clear
11:58 PM 42.4 °F 37.5 °F 34.2 °F 72% 29.91 in 10.0 mi North 8.1 mph - N/A   Partly Cloudy